Location: Bacharowice
(49.9333°N, 19.5833°E)
Time: 03:09:03
(UTC+00:00)

ARIANE 5 R/B - Pass Details

Date: 11 May 2021
Orbit: 620 x 656 km, 98.1° (Epoch: 13 June)

Event Time Altitude Azimuth Distance (km) Brightness Sun altitude
Exits shadow 20:52:23 14° 216° (SW) 1,749 4.6 -18.1°
Maximum altitude 20:55:14 26° 266° (W) 1,244 4.3 -18.3°
Drops below altitude 10° 20:58:52 10° 323° (NW) 1,999 6.4 -18.5°
Sets 21:01:23 0° 336° (NNW) 2,912 7.7 -18.7°
